Starlink 31048

operational
NORAD ID: 58544 Int'l Des: 2023-192 Owner: SPXS Country: US Constellation: starlink
LEOCIRCULAR

Starlink 31048について

説明を読み込み中...

リアルタイム位置

3D地球を読み込み中...

次回通過

高度履歴

Altitude vs Time

uPlot chart will show altitude changes over time

軌道要素

1 58544U 23192P 25351.55466849 -.00000931 00000-0 -19304-4 0 9992
2 58544 53.1619 83.9592 0001045 87.0771 273.0349 15.30193051113415
Epoch: Dec 17, 2025 • Age: 20 hours

現在のステータス

高度 476.2 km
速度 7.63 km/s
衛星直下点 -0.40°S, 152.86°W
打ち上げ日 Dec 8, 2023
運用期間 2 years
タイプ internet

技術仕様

分類 Payload
質量 730.00 kg
乾燥質量 700.00 kg
総質量 730.00 kg
長さ 0.30 m
直径 4.10 m
スパン 29.00 m
形状 Box + pan
製造者 SPXS
バスタイプ Starlink V2M
フェーズステータス In Orbit
所有者/国 SPXS/US

大規模コンステレーション

Loading constellations...